Wetterdaten: Donnerstag, 02.10.2014
Datum Zeit Temperatur Luftfeuchte Luftdruck Regen Wind Richtung Richtung Taupunkt Windchill Windben
02.10.2014 00:00 11,0 C 96 % 1029,5 hPa 0,0 l/m 0,0 km/h (0 Bft) S-SO 157 10,4 C 22,8 C 0,0 km/h (0 Bft)
02.10.2014 00:10 11,0 C 96 % 1029,4 hPa 0,0 l/m 0,0 km/h (0 Bft) S-SO 157 10,4 C 22,8 C 0,0 km/h (0 Bft)
02.10.2014 00:20 10,8 C 96 % 1029,4 hPa 0,0 l/m 0,0 km/h (0 Bft) S-SO 157 10,2 C 22,8 C 0,0 km/h (0 Bft)
02.10.2014 00:30 10,8 C 96 % 1029,4 hPa 0,0 l/m 0,0 km/h (0 Bft) S-SO 157 10,2 C 22,8 C 0,0 km/h (0 Bft)
02.10.2014 00:40 11,0 C 95 % 1029,4 hPa 0,0 l/m 0,0 km/h (0 Bft) S-SO 157 10,2 C 22,8 C 0,0 km/h (0 Bft)
02.10.2014 00:50 11,1 C 96 % 1029,3 hPa 0,0 l/m 0,0 km/h (0 Bft) S-SO 157 10,5 C 22,8 C 0,0 km/h (0 Bft)
02.10.2014 01:00 11,0 C 96 % 1029,3 hPa 0,0 l/m 0,0 km/h (0 Bft) S-SO 157 10,4 C 22,8 C 0,0 km/h (0 Bft)
02.10.2014 01:10 11,0 C 96 % 1029,4 hPa 0,0 l/m 0,0 km/h (0 Bft) S-SO 157 10,4 C 22,8 C 0,0 km/h (0 Bft)
02.10.2014 01:20 11,0 C 96 % 1029,4 hPa 0,0 l/m 0,0 km/h (0 Bft) S-SO 157 10,4 C 22,8 C 0,0 km/h (0 Bft)
02.10.2014 01:30 10,6 C 96 % 1029,4 hPa 0,0 l/m 0,0 km/h (0 Bft) S-SO 157 10,0 C 22,8 C 0,0 km/h (0 Bft)
02.10.2014 01:40 10,4 C 96 % 1029,4 hPa 0,0 l/m 0,0 km/h (0 Bft) S-SO 157 9,8 C 22,8 C 0,0 km/h (0 Bft)
02.10.2014 01:50 10,1 C 96 % 1029,4 hPa 0,0 l/m 0,0 km/h (0 Bft) S-SO 157 9,5 C 22,8 C 0,0 km/h (0 Bft)
02.10.2014 01:58 9,7 C 96 % 1029,4 hPa 0,0 l/m 0,0 km/h (0 Bft) S-SO 157 9,1 C 22,8 C 0,0 km/h (0 Bft)
02.10.2014 02:00 9,2 C 96 % 1029,4 hPa 0,0 l/m 0,0 km/h (0 Bft) S-SO 157 8,6 C 22,8 C 0,0 km/h (0 Bft)
02.10.2014 02:10 10,0 C 96 % 1029,4 hPa 0,0 l/m 0,0 km/h (0 Bft) S-SO 157 9,4 C 22,8 C 0,0 km/h (0 Bft)
02.10.2014 02:20 9,6 C 96 % 1029,3 hPa 0,0 l/m 0,0 km/h (0 Bft) S-SO 157 9,0 C 22,8 C 0,0 km/h (0 Bft)
02.10.2014 02:30 9,6 C 96 % 1029,3 hPa 0,0 l/m 0,0 km/h (0 Bft) S-SO 157 9,0 C 22,8 C 0,0 km/h (0 Bft)
02.10.2014 02:40 9,9 C 96 % 1029,3 hPa 0,0 l/m 0,0 km/h (0 Bft) S-SO 157 9,3 C 22,8 C 0,0 km/h (0 Bft)
02.10.2014 02:50 9,1 C 96 % 1029,6 hPa 0,0 l/m 0,0 km/h (0 Bft) S-SO 157 8,5 C 22,8 C 0,0 km/h (0 Bft)
02.10.2014 03:00 8,8 C 96 % 1029,6 hPa 0,0 l/m 0,0 km/h (0 Bft) S-SO 157 8,2 C 22,8 C 0,0 km/h (0 Bft)
02.10.2014 03:10 9,3 C 96 % 1029,3 hPa 0,0 l/m 0,0 km/h (0 Bft) S-SO 157 8,7 C 22,8 C 0,0 km/h (0 Bft)
02.10.2014 03:20 9,4 C 96 % 1029,3 hPa 0,0 l/m 0,0 km/h (0 Bft) S-SO 157 8,8 C 22,8 C 0,0 km/h (0 Bft)
02.10.2014 03:30 8,4 C 96 % 1029,3 hPa 0,0 l/m 0,0 km/h (0 Bft) S-SO 157 7,8 C 22,8 C 0,0 km/h (0 Bft)
02.10.2014 03:40 8,2 C 96 % 1029,3 hPa 0,0 l/m 0,0 km/h (0 Bft) S-SO 157 7,6 C 22,8 C 0,0 km/h (0 Bft)
02.10.2014 03:50 8,3 C 96 % 1029,4 hPa 0,0 l/m 0,0 km/h (0 Bft) S-SO 157 7,7 C 22,8 C 0,0 km/h (0 Bft)
02.10.2014 04:00 7,8 C 96 % 1029,4 hPa 0,0 l/m 0,0 km/h (0 Bft) S-SO 157 7,2 C 22,8 C 0,0 km/h (0 Bft)
02.10.2014 04:10 7,5 C 96 % 1029,3 hPa 0,0 l/m 0,0 km/h (0 Bft) S-SO 157 6,9 C 22,8 C 0,0 km/h (0 Bft)
02.10.2014 04:20 8,4 C 96 % 1029,3 hPa 0,0 l/m 0,0 km/h (0 Bft) S-SO 157 7,8 C 22,8 C 0,0 km/h (0 Bft)
02.10.2014 04:30 8,5 C 96 % 1029,2 hPa 0,0 l/m 0,0 km/h (0 Bft) S-SO 157 7,9 C 22,8 C 0,0 km/h (0 Bft)
02.10.2014 04:40 8,4 C 96 % 1029,2 hPa 0,0 l/m 0,0 km/h (0 Bft) S-SO 157 7,8 C 22,8 C 0,0 km/h (0 Bft)
02.10.2014 04:50 8,1 C 96 % 1029,2 hPa 0,0 l/m 0,0 km/h (0 Bft) S-SO 157 7,5 C 22,8 C 0,0 km/h (0 Bft)
02.10.2014 04:58 8,0 C 96 % 1029,2 hPa 0,0 l/m 0,0 km/h (0 Bft) S-SO 157 7,4 C 22,8 C 0,0 km/h (0 Bft)
02.10.2014 05:00 7,8 C 96 % 1029,4 hPa 0,0 l/m 0,0 km/h (0 Bft) S-SO 157 7,2 C 22,8 C 0,0 km/h (0 Bft)
02.10.2014 05:10 7,9 C 96 % 1029,4 hPa 0,0 l/m 0,0 km/h (0 Bft) S-SO 157 7,3 C 22,8 C 0,0 km/h (0 Bft)
02.10.2014 05:20 9,0 C 96 % 1029,2 hPa 0,0 l/m 0,0 km/h (0 Bft) S-SO 157 8,4 C 22,8 C 0,0 km/h (0 Bft)
02.10.2014 05:30 9,0 C 96 % 1029,2 hPa 0,0 l/m 0,0 km/h (0 Bft) S-SO 157 8,4 C 22,8 C 0,0 km/h (0 Bft)
02.10.2014 05:40 9,1 C 96 % 1029,2 hPa 0,0 l/m 0,0 km/h (0 Bft) S-SO 157 8,5 C 22,8 C 0,0 km/h (0 Bft)
02.10.2014 05:50 9,3 C 96 % 1029,2 hPa 0,0 l/m 0,0 km/h (0 Bft) S-SO 157 8,7 C 22,8 C 0,0 km/h (0 Bft)
02.10.2014 06:00 9,4 C 96 % 1029,2 hPa 0,0 l/m 0,0 km/h (0 Bft) S-SO 157 8,8 C 22,8 C 0,0 km/h (0 Bft)
02.10.2014 06:10 9,5 C 96 % 1029,6 hPa 0,0 l/m 0,0 km/h (0 Bft) S-SO 157 8,9 C 22,8 C 0,0 km/h (0 Bft)
02.10.2014 06:20 9,9 C 96 % 1029,6 hPa 0,0 l/m 0,0 km/h (0 Bft) S-SO 157 9,3 C 22,8 C 0,0 km/h (0 Bft)
02.10.2014 06:30 10,0 C 96 % 1029,2 hPa 0,0 l/m 0,0 km/h (0 Bft) S-SO 157 9,4 C 22,8 C 0,0 km/h (0 Bft)
02.10.2014 06:40 9,9 C 96 % 1029,2 hPa 0,0 l/m 0,0 km/h (0 Bft) S-SO 157 9,3 C 22,8 C 0,0 km/h (0 Bft)
02.10.2014 06:50 9,7 C 96 % 1029,2 hPa 0,0 l/m 0,0 km/h (0 Bft) S-SO 157 9,1 C 22,8 C 0,0 km/h (0 Bft)
02.10.2014 07:00 9,6 C 96 % 1029,2 hPa 0,0 l/m 0,0 km/h (0 Bft) S-SO 157 9,0 C 22,8 C 0,0 km/h (0 Bft)
02.10.2014 07:10 9,4 C 96 % 1029,2 hPa 0,0 l/m 0,0 km/h (0 Bft) S-SO 157 8,8 C 22,8 C 0,0 km/h (0 Bft)
02.10.2014 07:20 9,4 C 96 % 1029,2 hPa 0,0 l/m 0,0 km/h (0 Bft) S-SO 157 8,8 C 22,8 C 0,0 km/h (0 Bft)
02.10.2014 07:30 9,5 C 96 % 1029,6 hPa 0,0 l/m 0,0 km/h (0 Bft) S-SO 157 8,9 C 22,8 C 0,0 km/h (0 Bft)
02.10.2014 07:40 9,5 C 96 % 1029,6 hPa 0,0 l/m 0,0 km/h (0 Bft) S-SO 157 8,9 C 22,8 C 0,0 km/h (0 Bft)
02.10.2014 07:50 9,6 C 96 % 1029,6 hPa 0,0 l/m 0,0 km/h (0 Bft) S-SO 157 9,0 C 22,8 C 0,0 km/h (0 Bft)
02.10.2014 07:58 9,6 C 96 % 1029,6 hPa 0,0 l/m 0,0 km/h (0 Bft) S-SO 157 9,0 C 22,8 C 0,0 km/h (0 Bft)
02.10.2014 08:00 9,4 C 96 % 1029,7 hPa 0,0 l/m 0,0 km/h (0 Bft) S-SO 157 8,8 C 22,8 C 0,0 km/h (0 Bft)
02.10.2014 08:10 9,6 C 96 % 1029,7 hPa 0,0 l/m 0,0 km/h (0 Bft) S-SO 157 9,0 C 22,8 C 0,0 km/h (0 Bft)
02.10.2014 08:20 9,8 C 96 % 1029,8 hPa 0,0 l/m 0,0 km/h (0 Bft) S-SO 157 9,2 C 22,8 C 0,0 km/h (0 Bft)
02.10.2014 08:30 9,8 C 96 % 1029,8 hPa 0,0 l/m 0,0 km/h (0 Bft) S-SO 157 9,2 C 22,8 C 0,0 km/h (0 Bft)
02.10.2014 08:40 9,9 C 96 % 1029,8 hPa 0,0 l/m 0,0 km/h (0 Bft) S-SO 157 9,3 C 22,8 C 0,0 km/h (0 Bft)
02.10.2014 08:50 10,4 C 96 % 1029,7 hPa 0,0 l/m 0,0 km/h (0 Bft) S-SO 157 9,8 C 22,8 C 0,0 km/h (0 Bft)
02.10.2014 09:00 10,7 C 96 % 1029,7 hPa 0,0 l/m 0,0 km/h (0 Bft) S-SO 157 10,1 C 22,8 C 0,0 km/h (0 Bft)
02.10.2014 09:10 10,9 C 96 % 1029,8 hPa 0,0 l/m 0,0 km/h (0 Bft) S-SO 157 10,3 C 22,8 C 0,0 km/h (0 Bft)
02.10.2014 09:20 11,0 C 96 % 1029,8 hPa 0,0 l/m 0,0 km/h (0 Bft) S-SO 157 10,4 C 22,8 C 0,0 km/h (0 Bft)
02.10.2014 09:30 11,0 C 96 % 1029,9 hPa 0,0 l/m 0,0 km/h (0 Bft) S-SO 157 10,4 C 22,8 C 0,0 km/h (0 Bft)
02.10.2014 09:40 11,7 C 96 % 1029,9 hPa 0,0 l/m 0,0 km/h (0 Bft) S-SO 157 11,1 C 22,8 C 0,0 km/h (0 Bft)
02.10.2014 09:50 11,6 C 96 % 1029,9 hPa 0,0 l/m 0,0 km/h (0 Bft) S-SO 157 11,0 C 22,8 C 0,0 km/h (0 Bft)
02.10.2014 10:00 12,8 C 96 % 1029,9 hPa 0,0 l/m 0,0 km/h (0 Bft) S-SO 157 12,2 C 22,8 C 0,0 km/h (0 Bft)
02.10.2014 10:10 13,1 C 95 % 1030,1 hPa 0,0 l/m 0,0 km/h (0 Bft) S-SO 157 12,3 C 22,8 C 0,0 km/h (0 Bft)
02.10.2014 10:20 13,5 C 95 % 1030,1 hPa 0,0 l/m 0,0 km/h (0 Bft) S-SO 157 12,7 C 22,8 C 0,0 km/h (0 Bft)
02.10.2014 10:30 13,0 C 95 % 1030,2 hPa 0,0 l/m 0,0 km/h (0 Bft) S-SO 157 12,2 C 22,8 C 0,0 km/h (0 Bft)
02.10.2014 10:40 13,0 C 94 % 1030,2 hPa 0,0 l/m 0,0 km/h (0 Bft) S-SO 157 12,1 C 22,8 C 0,0 km/h (0 Bft)
02.10.2014 10:48 13,3 C 94 % 1029,9 hPa 0,0 l/m 0,0 km/h (0 Bft) S-SO 157 12,4 C 22,8 C 0,0 km/h (0 Bft)
02.10.2014 10:50 13,0 C 94 % 1029,9 hPa 0,0 l/m 0,0 km/h (0 Bft) S-SO 157 12,1 C 22,8 C 0,0 km/h (0 Bft)
02.10.2014 11:00 13,6 C 93 % 1030,4 hPa 0,0 l/m 0,0 km/h (0 Bft) S-SO 157 12,5 C 22,8 C 0,0 km/h (0 Bft)
02.10.2014 11:10 13,9 C 93 % 1030,4 hPa 0,0 l/m 0,0 km/h (0 Bft) S-SO 157 12,8 C 22,8 C 0,0 km/h (0 Bft)
02.10.2014 11:20 14,0 C 92 % 1030,4 hPa 0,0 l/m 0,0 km/h (0 Bft) S-SO 157 12,7 C 22,8 C 0,0 km/h (0 Bft)
02.10.2014 11:30 14,0 C 92 % 1030,4 hPa 0,0 l/m 0,0 km/h (0 Bft) S-SO 157 12,7 C 22,8 C 0,0 km/h (0 Bft)
02.10.2014 11:40 14,4 C 92 % 1030,4 hPa 0,0 l/m 0,0 km/h (0 Bft) S-SO 157 13,1 C 22,8 C 0,0 km/h (0 Bft)
02.10.2014 11:50 16,9 C 89 % 1030,1 hPa 0,0 l/m 0,0 km/h (0 Bft) S-SO 157 15,1 C 22,8 C 0,0 km/h (0 Bft)
02.10.2014 12:00 17,7 C 82 % 1030,1 hPa 0,0 l/m 0,0 km/h (0 Bft) S-SO 157 14,6 C 22,8 C 0,0 km/h (0 Bft)
02.10.2014 12:10 18,0 C 81 % 1030,2 hPa 0,0 l/m 0,0 km/h (0 Bft) S-SO 157 14,7 C 22,8 C 0,0 km/h (0 Bft)
02.10.2014 12:20 18,4 C 78 % 1030,2 hPa 0,0 l/m 0,0 km/h (0 Bft) S-SO 157 14,5 C 22,8 C 0,0 km/h (0 Bft)
02.10.2014 12:30 17,9 C 80 % 1030,3 hPa 0,0 l/m 0,0 km/h (0 Bft) S-SO 157 14,4 C 22,8 C 0,0 km/h (0 Bft)
02.10.2014 12:40 17,3 C 79 % 1030,3 hPa 0,0 l/m 0,0 km/h (0 Bft) S-SO 157 13,6 C 22,8 C 0,0 km/h (0 Bft)
02.10.2014 12:50 17,2 C 80 % 1030,4 hPa 0,0 l/m 0,0 km/h (0 Bft) S-SO 157 13,7 C 22,8 C 0,0 km/h (0 Bft)
02.10.2014 13:00 18,1 C 78 % 1030,4 hPa 0,0 l/m 0,0 km/h (0 Bft) S-SO 157 14,2 C 22,8 C 0,0 km/h (0 Bft)
02.10.2014 13:10 19,4 C 67 % 1030,2 hPa 0,0 l/m 0,0 km/h (0 Bft) S-SO 157 13,1 C 22,8 C 0,0 km/h (0 Bft)
02.10.2014 13:20 18,8 C 63 % 1030,2 hPa 0,0 l/m 0,0 km/h (0 Bft) S-SO 157 11,6 C 22,8 C 0,0 km/h (0 Bft)
02.10.2014 13:30 18,1 C 74 % 1030,4 hPa 0,0 l/m 0,0 km/h (0 Bft) S-SO 157 13,4 C 22,8 C 0,0 km/h (0 Bft)
02.10.2014 13:40 16,6 C 75 % 1030,4 hPa 0,0 l/m 0,0 km/h (0 Bft) S-SO 157 12,1 C 22,8 C 0,0 km/h (0 Bft)
02.10.2014 13:48 17,6 C 73 % 1030,1 hPa 0,0 l/m 0,0 km/h (0 Bft) S-SO 157 12,7 C 22,8 C 0,0 km/h (0 Bft)
02.10.2014 13:50 17,4 C 68 % 1030,1 hPa 0,0 l/m 0,0 km/h (0 Bft) S-SO 157 11,4 C 22,8 C 0,0 km/h (0 Bft)
02.10.2014 14:00 17,6 C 70 % 1029,9 hPa 0,0 l/m 0,0 km/h (0 Bft) S-SO 157 12,1 C 22,8 C 0,0 km/h (0 Bft)
02.10.2014 14:10 17,4 C 72 % 1029,9 hPa 0,0 l/m 0,0 km/h (0 Bft) S-SO 157 12,3 C 22,8 C 0,0 km/h (0 Bft)
02.10.2014 14:20 17,4 C 72 % 1029,9 hPa 0,0 l/m 0,0 km/h (0 Bft) S-SO 157 12,3 C 22,8 C 0,0 km/h (0 Bft)
02.10.2014 14:30 18,3 C 66 % 1029,8 hPa 0,0 l/m 0,0 km/h (0 Bft) S-SO 157 11,8 C 22,8 C 0,0 km/h (0 Bft)
02.10.2014 14:40 18,8 C 65 % 1029,8 hPa 0,0 l/m 0,0 km/h (0 Bft) S-SO 157 12,1 C 22,8 C 0,0 km/h (0 Bft)
02.10.2014 14:50 17,4 C 66 % 1029,7 hPa 0,0 l/m 0,0 km/h (0 Bft) S-SO 157 11,0 C 22,8 C 0,0 km/h (0 Bft)
02.10.2014 15:00 16,5 C 72 % 1029,7 hPa 0,0 l/m 0,0 km/h (0 Bft) S-SO 157 11,4 C 22,8 C 0,0 km/h (0 Bft)
02.10.2014 15:10 16,9 C 74 % 1029,8 hPa 0,0 l/m 0,0 km/h (0 Bft) S-SO 157 12,2 C 22,8 C 0,0 km/h (0 Bft)
02.10.2014 15:20 17,6 C 69 % 1029,8 hPa 0,0 l/m 0,0 km/h (0 Bft) S-SO 157 11,8 C 22,8 C 0,0 km/h (0 Bft)
02.10.2014 15:30 18,7 C 68 % 1029,3 hPa 0,0 l/m 0,0 km/h (0 Bft) S-SO 157 12,7 C 22,8 C 0,0 km/h (0 Bft)
02.10.2014 15:40 17,1 C 69 % 1029,3 hPa 0,0 l/m 0,0 km/h (0 Bft) S-SO 157 11,4 C 22,8 C 0,0 km/h (0 Bft)
02.10.2014 15:50 17,7 C 69 % 1029,4 hPa 0,0 l/m 0,0 km/h (0 Bft) S-SO 157 11,9 C 22,8 C 0,0 km/h (0 Bft)
02.10.2014 16:00 19,2 C 66 % 1029,4 hPa 0,0 l/m 0,0 km/h (0 Bft) S-SO 157 12,7 C 22,8 C 0,0 km/h (0 Bft)
02.10.2014 16:10 16,5 C 70 % 1029,1 hPa 0,0 l/m 0,0 km/h (0 Bft) S-SO 157 11,0 C 22,8 C 0,0 km/h (0 Bft)
02.10.2014 16:20 16,3 C 73 % 1029,1 hPa 0,0 l/m 0,0 km/h (0 Bft) S-SO 157 11,4 C 22,8 C 0,0 km/h (0 Bft)
02.10.2014 16:30 16,2 C 74 % 1029,0 hPa 0,0 l/m 0,0 km/h (0 Bft) S-SO 157 11,6 C 22,8 C 0,0 km/h (0 Bft)
02.10.2014 16:40 15,8 C 75 % 1029,0 hPa 0,0 l/m 0,0 km/h (0 Bft) S-SO 157 11,4 C 22,8 C 0,0 km/h (0 Bft)
02.10.2014 16:48 15,4 C 77 % 1028,8 hPa 0,0 l/m 0,0 km/h (0 Bft) S-SO 157 11,4 C 22,8 C 0,0 km/h (0 Bft)
02.10.2014 16:50 15,4 C 78 % 1028,8 hPa 0,0 l/m 0,0 km/h (0 Bft) S-SO 157 11,6 C 22,8 C 0,0 km/h (0 Bft)
02.10.2014 17:00 16,1 C 76 % 1028,8 hPa 0,0 l/m 0,0 km/h (0 Bft) S-SO 157 11,9 C 22,8 C 0,0 km/h (0 Bft)
02.10.2014 17:10 16,3 C 74 % 1028,8 hPa 0,0 l/m 0,0 km/h (0 Bft) S-SO 157 11,7 C 22,8 C 0,0 km/h (0 Bft)
02.10.2014 17:20 16,3 C 74 % 1028,8 hPa 0,0 l/m 0,0 km/h (0 Bft) S-SO 157 11,7 C 22,8 C 0,0 km/h (0 Bft)
02.10.2014 17:30 16,0 C 73 % 1028,7 hPa 0,0 l/m 0,0 km/h (0 Bft) S-SO 157 11,2 C 22,8 C 0,0 km/h (0 Bft)
02.10.2014 17:40 16,1 C 73 % 1028,7 hPa 0,0 l/m 0,0 km/h (0 Bft) S-SO 157 11,3 C 22,8 C 0,0 km/h (0 Bft)
02.10.2014 17:50 16,1 C 73 % 1028,7 hPa 0,0 l/m 0,0 km/h (0 Bft) S-SO 157 11,3 C 22,8 C 0,0 km/h (0 Bft)
02.10.2014 18:00 15,9 C 74 % 1028,7 hPa 0,0 l/m 0,0 km/h (0 Bft) S-SO 157 11,3 C 22,8 C 0,0 km/h (0 Bft)
02.10.2014 18:10 15,2 C 76 % 1028,7 hPa 0,0 l/m 0,0 km/h (0 Bft) S-SO 157 11,0 C 22,8 C 0,0 km/h (0 Bft)
02.10.2014 18:20 14,5 C 78 % 1028,7 hPa 0,0 l/m 0,0 km/h (0 Bft) S-SO 157 10,7 C 22,8 C 0,0 km/h (0 Bft)
02.10.2014 18:30 13,9 C 79 % 1028,7 hPa 0,0 l/m 0,0 km/h (0 Bft) S-SO 157 10,3 C 22,8 C 0,0 km/h (0 Bft)
02.10.2014 18:40 13,8 C 82 % 1028,7 hPa 0,0 l/m 0,0 km/h (0 Bft) S-SO 157 10,8 C 22,8 C 0,0 km/h (0 Bft)
02.10.2014 18:50 13,2 C 82 % 1028,6 hPa 0,0 l/m 0,0 km/h (0 Bft) S-SO 157 10,2 C 22,8 C 0,0 km/h (0 Bft)
02.10.2014 19:00 12,7 C 84 % 1028,6 hPa 0,0 l/m 0,0 km/h (0 Bft) S-SO 157 10,1 C 22,8 C 0,0 km/h (0 Bft)
02.10.2014 19:10 12,4 C 85 % 1028,6 hPa 0,0 l/m 0,0 km/h (0 Bft) S-SO 157 9,9 C 22,8 C 0,0 km/h (0 Bft)
02.10.2014 19:20 12,2 C 86 % 1028,6 hPa 0,0 l/m 0,0 km/h (0 Bft) S-SO 157 9,9 C 22,8 C 0,0 km/h (0 Bft)
02.10.2014 19:30 12,0 C 86 % 1028,6 hPa 0,0 l/m 0,0 km/h (0 Bft) S-SO 157 9,7 C 22,8 C 0,0 km/h (0 Bft)
02.10.2014 19:40 11,9 C 87 % 1028,6 hPa 0,0 l/m 0,0 km/h (0 Bft) S-SO 157 9,8 C 22,8 C 0,0 km/h (0 Bft)
02.10.2014 19:48 11,7 C 88 % 1028,7 hPa 0,0 l/m 0,0 km/h (0 Bft) S-SO 157 9,8 C 22,8 C 0,0 km/h (0 Bft)
02.10.2014 19:50 12,0 C 88 % 1028,7 hPa 0,0 l/m 0,0 km/h (0 Bft) S-SO 157 10,1 C 22,8 C 0,0 km/h (0 Bft)
02.10.2014 20:00 12,1 C 88 % 1028,6 hPa 0,0 l/m 0,0 km/h (0 Bft) S-SO 157 10,2 C 22,8 C 0,0 km/h (0 Bft)
02.10.2014 20:10 12,0 C 88 % 1028,6 hPa 0,0 l/m 0,0 km/h (0 Bft) S-SO 157 10,1 C 22,8 C 0,0 km/h (0 Bft)
02.10.2014 20:20 11,9 C 88 % 1028,7 hPa 0,0 l/m 0,0 km/h (0 Bft) S-SO 157 10,0 C 22,8 C 0,0 km/h (0 Bft)
02.10.2014 20:30 11,9 C 88 % 1028,7 hPa 0,0 l/m 0,0 km/h (0 Bft) S-SO 157 10,0 C 22,8 C 0,0 km/h (0 Bft)
02.10.2014 20:40 12,2 C 88 % 1028,7 hPa 0,0 l/m 0,0 km/h (0 Bft) S-SO 157 10,3 C 22,8 C 0,0 km/h (0 Bft)
02.10.2014 20:50 12,4 C 89 % 1028,7 hPa 0,0 l/m 0,0 km/h (0 Bft) S-SO 157 10,6 C 22,8 C 0,0 km/h (0 Bft)
02.10.2014 21:00 12,5 C 89 % 1028,7 hPa 0,0 l/m 0,0 km/h (0 Bft) S-SO 157 10,7 C 22,8 C 0,0 km/h (0 Bft)
02.10.2014 21:10 12,6 C 89 % 1028,7 hPa 0,0 l/m 0,0 km/h (0 Bft) S-SO 157 10,8 C 22,8 C 0,0 km/h (0 Bft)
02.10.2014 21:20 12,7 C 89 % 1028,7 hPa 0,0 l/m 0,0 km/h (0 Bft) S-SO 157 10,9 C 22,8 C 0,0 km/h (0 Bft)
02.10.2014 21:30 12,7 C 89 % 1028,7 hPa 0,0 l/m 0,0 km/h (0 Bft) S-SO 157 10,9 C 22,8 C 0,0 km/h (0 Bft)
02.10.2014 21:40 12,6 C 89 % 1028,7 hPa 0,0 l/m 0,0 km/h (0 Bft) S-SO 157 10,8 C 22,8 C 0,0 km/h (0 Bft)
02.10.2014 21:50 12,6 C 89 % 1028,7 hPa 0,0 l/m 0,0 km/h (0 Bft) S-SO 157 10,8 C 22,8 C 0,0 km/h (0 Bft)
02.10.2014 22:00 12,5 C 89 % 1028,7 hPa 0,0 l/m 0,0 km/h (0 Bft) S-SO 157 10,7 C 22,8 C 0,0 km/h (0 Bft)
02.10.2014 22:10 12,3 C 89 % 1028,4 hPa 0,0 l/m 0,0 km/h (0 Bft) S-SO 157 10,5 C 22,8 C 0,0 km/h (0 Bft)
02.10.2014 22:20 12,3 C 90 % 1028,4 hPa 0,0 l/m 0,0 km/h (0 Bft) S-SO 157 10,7 C 22,8 C 0,0 km/h (0 Bft)
02.10.2014 22:30 12,2 C 91 % 1028,6 hPa 0,0 l/m 0,0 km/h (0 Bft) S-SO 157 10,8 C 22,8 C 0,0 km/h (0 Bft)
02.10.2014 22:40 12,1 C 91 % 1028,6 hPa 0,0 l/m 0,0 km/h (0 Bft) S-SO 157 10,7 C 22,8 C 0,0 km/h (0 Bft)
02.10.2014 22:48 12,1 C 91 % 1028,4 hPa 0,0 l/m 0,0 km/h (0 Bft) S-SO 157 10,7 C 22,8 C 0,0 km/h (0 Bft)
02.10.2014 22:50 12,1 C 91 % 1028,4 hPa 0,0 l/m 0,0 km/h (0 Bft) S-SO 157 10,7 C 22,8 C 0,0 km/h (0 Bft)
02.10.2014 23:00 12,0 C 91 % 1028,4 hPa 0,0 l/m 0,0 km/h (0 Bft) S-SO 157 10,6 C 22,8 C 0,0 km/h (0 Bft)
02.10.2014 23:10 11,9 C 91 % 1028,4 hPa 0,0 l/m 0,0 km/h (0 Bft) S-SO 157 10,5 C 22,8 C 0,0 km/h (0 Bft)
02.10.2014 23:20 11,9 C 91 % 1028,4 hPa 0,0 l/m 0,0 km/h (0 Bft) S-SO 157 10,5 C 22,8 C 0,0 km/h (0 Bft)
02.10.2014 23:30 11,9 C 91 % 1028,3 hPa 0,0 l/m 0,0 km/h (0 Bft) S-SO 157 10,5 C 22,8 C 0,0 km/h (0 Bft)
02.10.2014 23:40 11,9 C 91 % 1028,3 hPa 0,0 l/m 0,0 km/h (0 Bft) S-SO 157 10,5 C 22,8 C 0,0 km/h (0 Bft)
02.10.2014 23:50 11,8 C 91 % 1028,4 hPa 0,0 l/m 0,0 km/h (0 Bft) S-SO 157 10,4 C 22,8 C 0,0 km/h (0 Bft)
_ Min-Zeit 04:10 13:20 23:40 - 23:50 - - 04:10 23:50 23:50
Minimum _ 7,5 C 63 % 1028,3 hPa - 0,0 km/h (0 Bft) - - 6,9 C 22,8 C 0,0 km/h (0 Bft)
_ Max-Zeit 13:10 10:00 13:40 23:50 23:50 - - 11:50 23:50 23:50
Maximum _ 19,4 C 96 % 1030,4 hPa 0,0 l/m 0,0 km/h
S-SO (0 Bft)
- - 15,1 C 22,8 C 0,0 km/h
S-SO (0 Bft)
Durchschnitt _ 12,7 C 88 % 1029,3 hPa #0,0 l/m 0,0 km/h (0 Bft) - - - 10,5 C 22,8 C 0,0 km/h (0 Bft)